Flag for India Weather past 2 weeks in Dharamshala, Himachal Pradesh, India

Now
77 °F

Fog.


Feels Like: 78 °F
Forecast: 68 / 82 °F
Wind: 5 mph from Northwest

Location: Amritsar Airport

Current Time: Jul 29, 2014 at 10:44:53 AM

Latest Report: Jul 29, 2014 at 9:30 AM


Visibility: 2 mi

Pressure: 29.56 "Hg

Humidity: 94%

Dew point: 75 °F

Location of DharamshalaLocation

Historic Weather in Dharamshala — Graph

°F

Dharamshala temperature yesterday

Maximum temperature yesterday: 90 °F (at 1:30 PM)
Minimum temperature yesterday: 81 °F (at 6:30 AM)
Average temperature yesterday: 85 °F

Past Weeks' High & Low Weather Summary

 TemperatureHumidityPressure
High99 °F (Jul 14, 3:30 PM)100% (Jul 17, 10:30 PM)29.68 "Hg (Jul 17, 10:30 PM)
Low70 °F (Jul 26, 6:00 PM)53% (Jul 14, 3:30 PM)29.36 "Hg (Jul 15, 5:00 PM)
Average87 °F81%29.50 "Hg
* Reported Jul 14 10:30 AM — Jul 29 9:30 AM, Dharamshala, Weather by CustomWeather, © 2014

Note: Actual official high and low records may vary slightly from our data, if they occured in-between our weather recording intervals... More about our weather records

Advertising

Dharamshala weather history for previous 24 hours

 ConditionsComfort  
Time TempWeatherWind HumidityBarometerVisibility
9:30 AM
Jul 29
77 °FFog.5 mph94%29.56 "Hg2 mi
9:00 AM82 °FFog.No wind94%29.56 "Hg1 mi
8:30 AM82 °FFog.1 mph94%29.56 "Hg1 mi
8:00 AM82 °FFog.2 mph94%29.53 "Hg1 mi
7:30 AM82 °FFog.2 mph94%29.56 "Hg1 mi
7:00 AM82 °FFog.2 mph100%29.53 "Hg1 mi
6:30 AM82 °FFog.3 mph100%29.53 "Hg1 mi
6:00 AM82 °FFog.1 mph100%29.50 "Hg1 mi
5:30 AM82 °FFog.1 mph100%29.50 "Hg1 mi
5:00 AM82 °FFog.2 mph100%29.50 "Hg1 mi
4:30 AM82 °FFog.2 mph100%29.50 "Hg1 mi
4:00 AM82 °FFog.1 mph100%29.50 "Hg1 mi
3:30 AM82 °FFog.No wind100%29.53 "Hg1 mi
2:00 AM82 °FFog.1 mph100%29.53 "Hg1 mi
1:30 AM82 °FFog.No wind100%29.53 "Hg1 mi
1:00 AM82 °FFog.1 mph100%29.53 "Hg1 mi
12:30 AM82 °FFog.No wind100%29.56 "Hg1 mi
12:00 AM82 °FFog.1 mph100%29.56 "Hg1 mi
11:30 PM
Jul 28
82 °FFog.No wind100%29.56 "Hg1 mi
11:00 PM82 °FFog.No wind100%29.56 "Hg2 mi
10:30 PM84 °FFog.2 mph94%29.53 "Hg2 mi
10:00 PM84 °FFog.1 mph94%29.53 "Hg2 mi
9:30 PM84 °FFog.2 mph94%29.53 "Hg2 mi
9:00 PM84 °FFog.3 mph94%29.53 "Hg2 mi
8:30 PM84 °FFog.3 mph94%29.53 "Hg2 mi
8:00 PM84 °FFog.3 mph94%29.50 "Hg2 mi
7:30 PM86 °FFog.1 mph84%29.50 "Hg3 mi
7:00 PM86 °FScattered clouds.6 mph84%29.47 "Hg3 mi
6:30 PM86 °FBroken clouds.7 mph84%29.50 "Hg3 mi
5:00 PM88 °FBroken clouds.7 mph79%29.47 "Hg4 mi
4:30 PM90 °FBroken clouds.7 mph75%29.50 "Hg4 mi
4:00 PM90 °FBroken clouds.7 mph75%29.50 "Hg4 mi
3:30 PM90 °FBroken clouds.7 mph75%29.50 "Hg4 mi
3:00 PM90 °FBroken clouds.6 mph71%29.53 "Hg4 mi
2:30 PM90 °FBroken clouds.8 mph71%29.53 "Hg4 mi
2:00 PM90 °FBroken clouds.6 mph71%29.53 "Hg4 mi
1:30 PM90 °FBroken clouds.7 mph71%29.53 "Hg4 mi
1:00 PM86 °FBroken clouds.6 mph79%29.56 "Hg4 mi
12:30 PM86 °FBroken clouds.8 mph79%29.56 "Hg4 mi
12:00 PM86 °FBroken clouds.9 mph79%29.56 "Hg4 mi
11:30 AM84 °FBroken clouds.8 mph89%29.59 "Hg3 mi
10:30 AM86 °FFog.10 mph79%29.56 "Hg2 mi
10:00 AM86 °FFog.10 mph79%29.56 "Hg2 mi
Weather by CustomWeather, © 2014

See weather overviewHow to use our weather pages